Location: Hac?musa Deresi
(39.1694°N, 32.2508°E)
Time: 09:40:14
(UTC+00:00)

Cosmos 1733 Rocket - Pass Details

Date: 22 April 2026
Orbit: 597 x 619 km, 82.5° (Epoch: 12 May)

Event Time Altitude Azimuth Distance (km) Brightness Sun altitude
Rises 17:50:37 0° 197° (SSW) 2,858 6.3 -14.3°
Reaches altitude 10° 17:52:51 10° 202° (SSW) 1,962 5.5 -14.6°
Maximum altitude 17:57:06 54° 280° (W) 753 3.8 -15.4°
Drops below altitude 10° 18:01:25 10° 358° (N) 1,988 6.1 -16.1°
Sets 18:03:42 0° 3° (N) 2,900 6.9 -16.4°
